Location: ??
(35.4032°N, 139.3073°E)
Time: 10:50:22
(UTC+00:00)

Resurs 1-4 Rocket - Pass Details

Date: 13 April 2024
Orbit: 798 x 814 km, 98.7° (Epoch: 21 May)

Event Time Altitude Azimuth Distance (km) Brightness Sun altitude
Rises 17:15:45 0° 3° (N) 3,334 5.9 -32.5°
Reaches altitude 10° 17:18:15 10° 355° (N) 2,396 4.9 -32.2°
Enters shadow 17:20:39 24° 337° (NNW) 1,621 3.8 -31.8°
